IK8SCR Weather Reports


Display with metric or nautical units.
time (UTC)temp
F
wind
direction
speed
MPH
gust
MPH
rain 1hr
in
rain 24hr
in
rain mn
in
humidity
%
barometer
mb
20260507165504 69 0 0.0 0.0 0.00 0.07 0.03 5 1012.5
20260507165007 69 0 0.0 0.0 0.00 0.07 0.03 6 1012.4
20260507164505 70 0 0.0 0.0 0.00 0.07 0.03 6 1012.4
20260507164007 70 0 0.0 0.0 0.00 0.07 0.03 9 1012.5
20260507163007 71 0 0.0 0.0 0.00 0.07 0.03 13 1012.5
20260507162504 71 0 0.0 0.0 0.00 0.07 0.03 18 1012.5
20260507162007 71 0 0.0 0.0 0.00 0.07 0.03 22 1012.5
20260507161504 72 0 0.0 0.0 0.00 0.07 0.03 17 1012.6
20260507161006 72 0 0.0 0.0 0.00 0.07 0.03 23 1012.7
20260507160504 72 0 0.0 0.0 0.00 0.07 0.03 17 1012.6
20260507160004 73 0 0.0 0.0 0.00 0.07 0.03 19 1012.7
20260507155504 73 0 0.0 0.0 0.00 0.07 0.03 27 1012.7
20260507155006 74 0 0.0 0.0 0.00 0.07 0.03 32 1012.7
20260507154504 74 0 0.0 0.0 0.00 0.07 0.03 34 1012.7
20260507154009 74 0 0.0 0.0 0.00 0.07 0.03 36 1012.7
20260507153505 75 0 0.0 0.0 0.00 0.07 0.03 37 1012.7
20260507152504 75 0 0.0 0.0 0.00 0.07 0.03 38 1012.7
20260507152006 75 0 0.0 0.0 0.00 0.07 0.03 38 1012.7
20260507151505 75 0 0.0 0.0 0.00 0.07 0.03 37 1012.7
20260507151007 75 0 0.0 0.0 0.00 0.07 0.03 35 1012.8
20260507150504 75 0 0.0 0.0 0.00 0.07 0.03 39 1012.9
20260507150005 75 0 0.0 0.0 0.00 0.07 0.03 38 1013.1
20260507145504 75 0 0.0 0.0 0.00 0.07 0.03 34 1013.0
20260507145007 74 0 0.0 0.0 0.00 0.07 0.03 34 1013.1
20260507144504 74 0 0.0 0.0 0.00 0.07 0.03 32 1013.0
20260507144006 74 0 0.0 0.0 0.00 0.07 0.03 32 1013.0
20260507143504 74 0 0.0 0.0 0.00 0.07 0.03 34 1012.9
20260507143006 74 0 0.0 0.0 0.00 0.07 0.03 37 1012.9
20260507142504 74 0 0.0 0.0 0.00 0.07 0.03 32 1012.9
20260507142006 75 0 0.0 0.0 0.00 0.07 0.03 35 1013.0
20260507141504 75 0 0.0 0.0 0.00 0.07 0.03 30 1013.1
20260507141007 75 0 0.0 0.0 0.00 0.07 0.03 34 1013.1
20260507140504 76 0 0.0 0.0 0.00 0.07 0.03 37 1013.2
20260507140004 76 0 0.0 0.0 0.00 0.07 0.03 35 1013.3
20260507135504 76 0 0.0 0.0 0.00 0.07 0.03 35 1013.4
20260507134504 76 0 0.0 0.0 0.00 0.07 0.03 36 1013.4
20260507134006 76 0 0.0 0.0 0.00 0.07 0.03 41 1013.5
20260507133504 77 0 0.0 0.0 0.00 0.07 0.03 41 1013.6
20260507133006 78 0 0.0 0.0 0.00 0.07 0.03 45 1013.6
20260507132504 78 0 0.0 0.0 0.00 0.07 0.03 44 1013.7
20260507131504 78 0 0.0 0.0 0.00 0.07 0.03 40 1013.7
20260507131006 78 0 0.0 0.0 0.00 0.07 0.03 38 1013.8
20260507130504 78 0 0.0 0.0 0.00 0.07 0.03 45 1013.9
20260507130004 78 0 0.0 0.0 0.00 0.07 0.03 42 1013.9
20260507125504 78 0 0.0 0.0 0.00 0.07 0.03 43 1013.9
20260507125006 78 0 0.0 0.0 0.00 0.07 0.03 40 1014.0
20260507124504 78 0 0.0 0.0 0.00 0.07 0.03 41 1014.0
20260507124006 78 0 0.0 0.0 0.00 0.07 0.03 39 1014.2
20260507123504 78 0 0.0 0.0 0.00 0.07 0.03 35 1014.1
20260507123006 77 0 0.0 0.0 0.00 0.07 0.03 41 1014.2
20260507122006 78 0 0.0 0.0 0.00 0.07 0.03 44 1014.4
20260507121006 77 0 0.0 0.0 0.00 0.07 0.03 41 1014.4
20260507120004 77 0 0.0 0.0 0.00 0.07 0.03 40 1014.4
20260507115006 77 0 0.0 0.0 0.00 0.07 0.03 39 1014.3
20260507114504 77 0 0.0 0.0 0.00 0.07 0.03 41 1014.3
20260507114006 77 0 0.0 0.0 0.00 0.07 0.03 40 1014.4
20260507113503 77 0 0.0 0.0 0.00 0.07 0.03 37 1014.5
20260507112006 76 0 0.0 0.0 0.00 0.07 0.03 32 1014.6
20260507111506 76 0 0.0 0.0 0.00 0.07 0.03 25 1014.7
20260507110504 76 0 0.0 0.0 0.00 0.07 0.03 16 1014.9
20260507110004 75 0 0.0 0.0 0.00 0.07 0.03 26 1015.0
20260507105504 75 0 0.0 0.0 0.00 0.07 0.03 21 1015.0
20260507105007 75 0 0.0 0.0 0.00 0.07 0.03 9 1015.0
20260507104505 74 0 0.0 0.0 0.00 0.07 0.03 13 1015.1
20260507104007 74 0 0.0 0.0 0.00 0.07 0.03 12 1015.2
20260507103504 74 0 0.0 0.0 0.00 0.07 0.03 17 1015.2
20260507102504 75 0 0.0 0.0 0.00 0.07 0.03 25 1015.3
20260507102007 74 0 0.0 0.0 0.00 0.07 0.03 27 1015.4
20260507101504 74 0 0.0 0.0 0.00 0.07 0.03 24 1015.4
20260507101006 74 0 0.0 0.0 0.00 0.07 0.03 26 1015.4
20260507100505 73 0 0.0 0.0 0.00 0.07 0.03 31 1015.5
20260507095505 73 0 0.0 0.0 0.00 0.07 0.03 29 1015.3
20260507095007 73 0 0.0 0.0 0.00 0.07 0.03 30 1015.2
20260507094504 73 0 0.0 0.0 0.00 0.07 0.03 30 1015.2
20260507094006 73 0 0.0 0.0 0.00 0.07 0.03 28 1015.2
20260507093504 73 0 0.0 0.0 0.00 0.07 0.03 24 1015.2
20260507093006 73 0 0.0 0.0 0.00 0.07 0.03 19 1015.3
20260507092504 73 0 0.0 0.0 0.00 0.07 0.03 18 1015.4
20260507092007 73 0 0.0 0.0 0.00 0.07 0.03 12 1015.4
20260507091504 73 0 0.0 0.0 0.00 0.07 0.03 16 1015.5
20260507090505 72 0 0.0 0.0 0.00 0.07 0.03 3 1015.3
20260507085505 71 0 0.0 0.0 0.00 0.07 0.03 6 1015.3
20260507085007 71 0 0.0 0.0 0.00 0.07 0.03 3 1015.3
20260507084505 70 0 0.0 0.0 0.00 0.07 0.03 3 1015.3
20260507083505 70 0 0.0 0.0 0.00 0.07 0.03 3 1015.2
20260507083006 69 0 0.0 0.0 0.00 0.07 0.03 3 1015.4
20260507082504 69 0 0.0 0.0 0.00 0.07 0.03 3 1015.4
20260507081505 68 0 0.0 0.0 0.00 0.07 0.03 3 1015.5
20260507081007 68 0 0.0 0.0 0.00 0.07 0.03 3 1015.6
20260507080005 67 0 0.0 0.0 0.00 0.07 0.03 3 1015.6
20260507075507 67 0 0.0 0.0 0.00 0.07 0.03 3 1015.6
20260507075007 67 0 0.0 0.0 0.00 0.07 0.03 3 1015.5
20260507074508 67 0 0.0 0.0 0.00 0.07 0.03 3 1015.6
20260507073505 66 0 0.0 0.0 0.00 0.07 0.03 3 1015.6
20260507073006 66 0 0.0 0.0 0.00 0.07 0.03 3 1015.6
20260507072504 65 0 0.0 0.0 0.00 0.07 0.03 3 1015.7
20260507072006 65 0 0.0 0.0 0.00 0.07 0.03 3 1015.7
20260507071504 65 0 0.0 0.0 0.00 0.07 0.03 3 1015.6
20260507071006 64 0 0.0 0.0 0.00 0.07 0.03 3 1015.6
20260507070504 64 0 0.0 0.0 0.00 0.07 0.03 3 1015.6
20260507065504 63 0 0.0 0.0 0.00 0.07 0.03 3 1015.6
20260507065007 62 0 0.0 0.0 0.00 0.07 0.03 3 1015.5
20260507064505 62 0 0.0 0.0 0.00 0.07 0.03 3 1015.5
20260507064007 62 0 0.0 0.0 0.00 0.07 0.03 3 1015.5
20260507063505 61 0 0.0 0.0 0.00 0.07 0.03 3 1015.5
20260507063006 61 0 0.0 0.0 0.00 0.07 0.03 3 1015.5
20260507062006 61 0 0.0 0.0 0.00 0.07 0.03 3 1015.6
20260507061504 61 0 0.0 0.0 0.00 0.07 0.03 3 1015.5
20260507061006 60 0 0.0 0.0 0.00 0.07 0.03 3 1015.6
20260507060504 60 0 0.0 0.0 0.00 0.07 0.03 3 1015.6
20260507060004 60 0 0.0 0.0 0.00 0.07 0.03 3 1015.5
20260507055006 60 0 0.0 0.0 0.00 0.07 0.03 3 1015.6
20260507054007 60 0 0.0 0.0 0.00 0.07 0.03 3 1015.5
20260507053505 60 0 0.0 0.0 0.00 0.07 0.03 3 1015.5
20260507053007 60 0 0.0 0.0 0.00 0.07 0.03 3 1015.5
20260507052504 60 0 0.0 0.0 0.00 0.07 0.03 3 1015.5
20260507052006 59 0 0.0 0.0 0.00 0.07 0.03 3 1015.5
20260507051504 59 0 0.0 0.0 0.00 0.07 0.03 3 1015.6
20260507051006 59 0 0.0 0.0 0.00 0.07 0.03 3 1015.5
20260507050504 58 0 0.0 0.0 0.00 0.07 0.03 3 1015.4
20260507050005 58 0 0.0 0.0 0.00 0.07 0.03 3 1015.4
20260507045505 57 0 0.0 0.0 0.00 0.07 0.03 3 1015.2
20260507045007 57 0 0.0 0.0 0.00 0.07 0.03 3 1015.2
20260507044006 57 0 0.0 0.0 0.00 0.07 0.03 3 1015.1
20260507043504 57 0 0.0 0.0 0.00 0.07 0.03 3 1015.0
20260507043006 57 0 0.0 0.0 0.00 0.07 0.03 3 1015.0
20260507042504 57 0 0.0 0.0 0.00 0.07 0.03 3 1014.9
20260507042006 57 0 0.0 0.0 0.00 0.07 0.03 3 1014.8
20260507041504 57 0 0.0 0.0 0.00 0.07 0.03 3 1014.9
20260507040504 57 0 0.0 0.0 0.00 0.07 0.03 3 1014.8
20260507040004 57 0 0.0 0.0 0.00 0.07 0.03 3 1014.8
20260507035504 57 0 0.0 0.0 0.00 0.07 0.03 3 1014.8
20260507035006 58 0 0.0 0.0 0.00 0.07 0.03 3 1014.9
20260507034505 58 0 0.0 0.0 0.00 0.07 0.03 3 1014.9
20260507034006 58 0 0.0 0.0 0.00 0.07 0.03 3 1015.0
20260507033504 58 0 0.0 0.0 0.00 0.07 0.03 3 1015.0
20260507033006 58 0 0.0 0.0 0.00 0.07 0.03 3 1015.1
20260507032504 58 0 0.0 0.0 0.00 0.07 0.03 3 1015.2
20260507032007 58 0 0.0 0.0 0.00 0.07 0.03 3 1015.2
20260507031504 58 0 0.0 0.0 0.00 0.07 0.03 3 1015.0
20260507031007 58 0 0.0 0.0 0.01 0.07 0.03 3 1015.0
20260507030504 59 0 0.0 0.0 0.01 0.07 0.03 3 1014.9
20260507030004 59 0 0.0 0.0 0.01 0.07 0.03 3 1014.6
20260507025504 59 0 0.0 0.0 0.01 0.07 0.03 3 1014.4
20260507025006 59 0 0.0 0.0 0.01 0.07 0.03 3 1014.3
20260507024505 59 0 0.0 0.0 0.02 0.07 0.03 3 1014.4
20260507024007 59 0 0.0 0.0 0.02 0.07 0.03 3 1014.3
20260507023504 59 0 0.0 0.0 0.02 0.07 0.03 3 1014.4
20260507023006 58 0 0.0 0.0 0.02 0.07 0.03 3 1014.3
20260507022504 58 0 0.0 0.0 0.02 0.07 0.03 3 1014.5
20260507022006 58 0 0.0 0.0 0.02 0.07 0.03 3 1014.7
20260507021504 58 0 0.0 0.0 0.02 0.07 0.03 3 1014.9
20260507021006 58 0 0.0 0.0 0.01 0.06 0.02 3 1014.8
20260507020004 58 0 0.0 0.0 0.01 0.06 0.02 3 1015.0
20260507015505 58 0 0.0 0.0 0.01 0.06 0.02 3 1015.1
20260507015006 58 0 0.0 0.0 0.01 0.06 0.02 3 1015.1
20260507013504 58 0 0.0 0.0 0.00 0.06 0.02 3 1015.0
20260507013006 58 0 0.0 0.0 0.01 0.06 0.02 3 1015.1
20260507012503 58 0 0.0 0.0 0.01 0.06 0.02 3 1015.2
20260507012006 58 0 0.0 0.0 0.02 0.06 0.02 3 1015.1
20260507011504 58 0 0.0 0.0 0.02 0.06 0.02 3 1015.2
20260507010504 58 0 0.0 0.0 0.02 0.06 0.02 3 1015.1
20260507010004 58 0 0.0 0.0 0.02 0.06 0.02 3 1015.1
20260507005504 58 0 0.0 0.0 0.02 0.06 0.02 3 1015.2
20260507005006 58 0 0.0 0.0 0.02 0.06 0.02 3 1015.2
20260507004504 58 0 0.0 0.0 0.02 0.06 0.02 3 1015.2
20260507004006 58 0 0.0 0.0 0.03 0.06 0.02 3 1015.0
20260507003006 58 0 0.0 0.0 0.03 0.05 0.01 3 1015.1
20260507002504 58 0 0.0 0.0 0.03 0.05 0.01 3 1015.2
20260507002006 58 0 0.0 0.0 0.02 0.04 0.00 3 1015.3
20260507001504 58 0 0.0 0.0 0.02 0.04 0.00 3 1015.4
20260507001006 58 0 0.0 0.0 0.02 0.04 0.00 3 1015.4
20260507000004 59 0 0.0 0.0 0.02 0.04 0.00 3 1015.4
20260506235504 59 0 0.0 0.0 0.02 0.04 0.04 3 1015.6
20260506235006 59 0 0.0 0.0 0.02 0.04 0.04 3 1015.6
20260506234504 59 0 0.0 0.0 0.02 0.03 0.03 3 1015.7
20260506234006 59 0 0.0 0.0 0.01 0.02 0.02 3 1015.8
20260506233504 59 0 0.0 0.0 0.01 0.02 0.02 3 1015.8
20260506233006 59 0 0.0 0.0 0.01 0.02 0.02 3 1015.9
20260506232504 60 0 0.0 0.0 0.01 0.02 0.02 3 1015.9
20260506232006 60 0 0.0 0.0 0.01 0.02 0.02 3 1016.0
20260506231504 60 0 0.0 0.0 0.01 0.02 0.02 3 1016.0
20260506231006 60 0 0.0 0.0 0.01 0.02 0.02 3 1016.1
20260506230005 60 0 0.0 0.0 0.01 0.02 0.02 3 1016.1
20260506225505 60 0 0.0 0.0 0.01 0.02 0.02 3 1016.2
20260506225006 60 0 0.0 0.0 0.01 0.02 0.02 3 1016.3
20260506224504 60 0 0.0 0.0 0.01 0.02 0.02 3 1016.3
20260506224007 60 0 0.0 0.0 0.01 0.02 0.02 3 1016.3
20260506223504 61 0 0.0 0.0 0.01 0.02 0.02 3 1016.4
20260506223007 61 0 0.0 0.0 0.00 0.01 0.01 3 1016.4
20260506222504 61 0 0.0 0.0 0.00 0.01 0.01 3 1016.4
20260506222006 61 0 0.0 0.0 0.00 0.01 0.01 3 1016.3
20260506221006 61 0 0.0 0.0 0.00 0.01 0.01 3 1016.4
20260506220505 61 0 0.0 0.0 0.00 0.01 0.01 3 1016.4
20260506220005 62 0 0.0 0.0 0.00 0.01 0.01 3 1016.3
20260506215505 61 0 0.0 0.0 0.00 0.01 0.01 3 1016.4
20260506215007 61 0 0.0 0.0 0.00 0.01 0.01 3 1016.4
20260506214505 61 0 0.0 0.0 0.00 0.01 0.01 3 1016.4
20260506214006 61 0 0.0 0.0 0.00 0.01 0.01 3 1016.5
20260506213006 61 0 0.0 0.0 0.00 0.01 0.01 3 1016.6
20260506212504 61 0 0.0 0.0 0.00 0.01 0.01 3 1016.6
20260506212006 61 0 0.0 0.0 0.00 0.01 0.01 3 1016.6
20260506211504 61 0 0.0 0.0 0.00 0.01 0.01 3 1016.5
20260506211009 61 0 0.0 0.0 0.00 0.01 0.01 3 1016.5
20260506210505 61 0 0.0 0.0 0.00 0.01 0.01 3 1016.5
20260506210005 61 0 0.0 0.0 0.00 0.01 0.01 3 1016.6
20260506205007 61 0 0.0 0.0 0.00 0.01 0.01 3 1016.8
20260506204504 61 0 0.0 0.0 0.00 0.01 0.01 3 1016.8
20260506204006 61 0 0.0 0.0 0.00 0.01 0.01 3 1016.7
20260506202504 62 0 0.0 0.0 0.01 0.01 0.01 3 1016.7
20260506202007 62 0 0.0 0.0 0.01 0.01 0.01 3 1016.8
20260506201505 62 0 0.0 0.0 0.01 0.01 0.01 3 1016.8
20260506201007 62 0 0.0 0.0 0.01 0.01 0.01 3 1016.9
20260506200504 62 0 0.0 0.0 0.01 0.01 0.01 3 1017.0
20260506195504 62 0 0.0 0.0 0.01 0.01 0.01 3 1017.0
20260506195007 63 0 0.0 0.0 0.01 0.01 0.01 3 1017.0
20260506194505 63 0 0.0 0.0 0.01 0.01 0.01 3 1017.0
20260506194007 63 0 0.0 0.0 0.01 0.01 0.01 3 1017.0
20260506193504 63 0 0.0 0.0 0.00 0.00 0.00 3 1017.0
20260506193006 63 0 0.0 0.0 0.00 0.00 0.00 3 1016.9
20260506192505 64 0 0.0 0.0 0.00 0.00 0.00 3 1016.9
20260506192007 64 0 0.0 0.0 0.00 0.00 0.00 3 1016.8
20260506191504 64 0 0.0 0.0 0.00 0.00 0.00 3 1016.8
20260506191007 64 0 0.0 0.0 0.00 0.00 0.00 3 1016.7
20260506190504 64 0 0.0 0.0 0.00 0.00 0.00 3 1016.7
20260506190005 64 0 0.0 0.0 0.00 0.00 0.00 3 1016.6
20260506185504 64 0 0.0 0.0 0.00 0.00 0.00 4 1016.5
20260506185006 64 0 0.0 0.0 0.00 0.00 0.00 6 1016.4
20260506184007 64 0 0.0 0.0 0.00 0.00 0.00 6 1016.3
20260506183505 64 0 0.0 0.0 0.00 0.00 0.00 7 1016.2
20260506183007 64 0 0.0 0.0 0.00 0.00 0.00 7 1016.1
20260506182505 64 0 0.0 0.0 0.00 0.00 0.00 6 1016.1
20260506182007 64 0 0.0 0.0 0.00 0.00 0.00 5 1016.0
20260506181505 64 0 0.0 0.0 0.00 0.00 0.00 4 1016.0
20260506180504 64 0 0.0 0.0 0.00 0.00 0.00 3 1016.0
20260506180005 64 0 0.0 0.0 0.00 0.00 0.00 3 1015.9
20260506175504 65 0 0.0 0.0 0.00 0.00 0.00 3 1015.8
20260506174006 65 0 0.0 0.0 0.00 0.00 0.00 3 1015.7
20260506173504 65 0 0.0 0.0 0.00 0.00 0.00 3 1015.6
20260506172504 65 0 0.0 0.0 0.00 0.00 0.00 3 1015.6
20260506172006 65 0 0.0 0.0 0.00 0.00 0.00 3 1015.6
20260506171504 65 0 0.0 0.0 0.00 0.00 0.00 3 1015.7
20260506171006 65 0 0.0 0.0 0.00 0.00 0.00 3 1015.7
20260506170504 66 0 0.0 0.0 0.00 0.00 0.00 3 1015.7
20260506170004 66 0 0.0 0.0 0.00 0.00 0.00 3 1015.7